******** Week 146 almanac for PRN-1 ******** ID: 1 Health: 0 Eccentricity: 0.01130199432 Time of Applicability(s): 319488 Orbital Inclination(rad): 0.9865078384 Rate of Right Ascen(r/s): -7.737465153e-09 SQRT(A) (m 1/2): 5153.629883 Right Ascen at Week(rad): -1.53609151 Argument of Perigee(rad): 0.8821134803 Mean Anom(rad): 2.782241551 Af0(s): 0.0003534732544 Af1(s/s): -1.091394e-11 week: 146 ******** Week 146 almanac for PRN-2 ******** ID: 2 Health: 0 Eccentricity: 0.02067947388 Time of Applicability(s): 319488 Orbital Inclination(rad): 0.964852344 Rate of Right Ascen(r/s): -7.931758961e-09 SQRT(A) (m 1/2): 5153.635742 Right Ascen at Week(rad): -1.624984124 Argument of Perigee(rad): -1.451834544 Mean Anom(rad): 2.93894091 Af0(s): -0.0005132522095 Af1(s/s): 0 week: 146 ******** Week 146 almanac for PRN-3 ******** ID: 3 Health: 0 Eccentricity: 0.003854751587 Time of Applicability(s): 319488 Orbital Inclination(rad): 0.9725462164 Rate of Right Ascen(r/s): -7.714607058e-09 SQRT(A) (m 1/2): 5153.644531 Right Ascen at Week(rad): -0.5006016724 Argument of Perigee(rad): 0.9705402073 Mean Anom(rad): 1.618234384 Af0(s): -7.461375732e-05 Af1(s/s): -1.455192e-11 week: 146 ******** Week 146 almanac for PRN-4 ******** ID: 4 Health: 0 Eccentricity: 0.001669883728 Time of Applicability(s): 319488 Orbital Inclination(rad): 0.9612031475 Rate of Right Ascen(r/s): -7.908900866e-09 SQRT(A) (m 1/2): 5153.599121 Right Ascen at Week(rad): 0.580239094 Argument of Perigee(rad): -3.093310085 Mean Anom(rad): -1.689540896 Af0(s): -0.0001522422119 Af1(s/s): 3.637979e-12 week: 146 ******** Week 146 almanac for PRN-5 ******** ID: 5 Health: 0 Eccentricity: 0.00586938858 Time of Applicability(s): 319488 Orbital Inclination(rad): 0.9595193639 Rate of Right Ascen(r/s): -7.863184676e-09 SQRT(A) (m 1/2): 5153.60498 Right Ascen at Week(rad): -0.5407278534 Argument of Perigee(rad): 1.011871177 Mean Anom(rad): -0.8519862624 Af0(s): -5.50182251e-05 Af1(s/s): 0 week: 146 ******** Week 146 almanac for PRN-6 ******** ID: 6 Health: 0 Eccentricity: 0.002654075623 Time of Applicability(s): 319488 Orbital Inclination(rad): 0.9858846587 Rate of Right Ascen(r/s): -7.726036106e-09 SQRT(A) (m 1/2): 5153.616699 Right Ascen at Week(rad): -1.544363247 Argument of Perigee(rad): -0.9854234911 Mean Anom(rad): 3.13705363 Af0(s): 0.0001439517944 Af1(s/s): 1.091394e-11 week: 146 ******** Week 146 almanac for PRN-7 ******** ID: 7 Health: 0 Eccentricity: 0.01546287537 Time of Applicability(s): 319488 Orbital Inclination(rad): 0.9506031006 Rate of Right Ascen(r/s): -7.886042771e-09 SQRT(A) (m 1/2): 5153.644531 Right Ascen at Week(rad): 1.599518769 Argument of Perigee(rad): -2.29390049 Mean Anom(rad): 2.117143284 Af0(s): 0.0002411757812 Af1(s/s): 3.637979e-12 week: 146 ******** Week 146 almanac for PRN-8 ******** ID: 8 Health: 0 Eccentricity: 0.007202148437 Time of Applicability(s): 319488 Orbital Inclination(rad): 0.9651639338 Rate of Right Ascen(r/s): -8.148910863e-09 SQRT(A) (m 1/2): 5153.661621 Right Ascen at Week(rad): -2.615674682 Argument of Perigee(rad): 0.08944650966 Mean Anom(rad): -1.215034874 Af0(s): -4.220576172e-05 Af1(s/s): 0 week: 146 ******** Week 146 almanac for PRN-9 ******** ID: 9 Health: 0 Eccentricity: 0.002314090729 Time of Applicability(s): 319488 Orbital Inclination(rad): 0.9542223365 Rate of Right Ascen(r/s): -7.988904198e-09 SQRT(A) (m 1/2): 5153.571289 Right Ascen at Week(rad): 0.5274508303 Argument of Perigee(rad): 1.863831224 Mean Anom(rad): -0.8728916192 Af0(s): -0.0002818741943 Af1(s/s): 0 week: 146 ******** Week 146 almanac for PRN-10 ******** ID: 10 Health: 0 Eccentricity: 0.007479667664 Time of Applicability(s): 319488 Orbital Inclination(rad): 0.9723724451 Rate of Right Ascen(r/s): -7.726036106e-09 SQRT(A) (m 1/2): 5153.631348 Right Ascen at Week(rad): -0.5033966183 Argument of Perigee(rad): -2.527899972 Mean Anom(rad): 0.7648137594 Af0(s): -0.0002396684326 Af1(s/s): -1.091394e-11 week: 146 ******** Week 146 almanac for PRN-11 ******** ID: 11 Health: 255 Eccentricity: 0.000289440155 Time of Applicability(s): 319488 Orbital Inclination(rad): 0.9616166033 Rate of Right Ascen(r/s): -7.966046103e-09 SQRT(A) (m 1/2): 5153.717773 Right Ascen at Week(rad): -1.49183976 Argument of Perigee(rad): 2.858521892 Mean Anom(rad): -1.356762565 Af0(s): -6.481599121e-05 Af1(s/s): -4.001777e-11 week: 146 ******** Week 146 almanac for PRN-12 ******** ID: 12 Health: 0 Eccentricity: 0.008620738983 Time of Applicability(s): 319488 Orbital Inclination(rad): 0.9707425905 Rate of Right Ascen(r/s): -7.840326581e-09 SQRT(A) (m 1/2): 5153.568359 Right Ascen at Week(rad): 2.712158553 Argument of Perigee(rad): 1.238358048 Mean Anom(rad): 1.459352024 Af0(s): -0.0001281246338 Af1(s/s): -7.275958e-12 week: 146 ******** Week 146 almanac for PRN-13 ******** ID: 13 Health: 0 Eccentricity: 0.005803108215 Time of Applicability(s): 319488 Orbital Inclination(rad): 0.9685974143 Rate of Right Ascen(r/s): -7.817468486e-09 SQRT(A) (m 1/2): 5153.617676 Right Ascen at Week(rad): 0.6799564589 Argument of Perigee(rad): 0.9674141972 Mean Anom(rad): -1.814913116 Af0(s): 0.0001989700195 Af1(s/s): 7.275958e-12 week: 146 ******** Week 146 almanac for PRN-14 ******** ID: 14 Health: 0 Eccentricity: 0.001347541809 Time of Applicability(s): 319488 Orbital Inclination(rad): 0.9541324548 Rate of Right Ascen(r/s): -7.977475151e-09 SQRT(A) (m 1/2): 5153.598145 Right Ascen at Week(rad): 2.681188694 Argument of Perigee(rad): 3.035101207 Mean Anom(rad): 1.504268899 Af0(s): -6.029394531e-05 Af1(s/s): -3.637979e-12 week: 146 ******** Week 146 almanac for PRN-15 ******** ID: 15 Health: 0 Eccentricity: 0.01392698288 Time of Applicability(s): 319488 Orbital Inclination(rad): 0.9301160681 Rate of Right Ascen(r/s): -8.217485148e-09 SQRT(A) (m 1/2): 5153.664062 Right Ascen at Week(rad): 0.4219458337 Argument of Perigee(rad): 1.07260311 Mean Anom(rad): -2.222135581 Af0(s): -7.009171143e-05 Af1(s/s): 3.637979e-12 week: 146 ******** Week 146 almanac for PRN-16 ******** ID: 16 Health: 0 Eccentricity: 0.01269865036 Time of Applicability(s): 319488 Orbital Inclination(rad): 0.97071263 Rate of Right Ascen(r/s): -7.851755628e-09 SQRT(A) (m 1/2): 5153.549316 Right Ascen at Week(rad): 2.730782413 Argument of Perigee(rad): 0.6998588859 Mean Anom(rad): -0.3963246844 Af0(s): -0.0003640246948 Af1(s/s): -3.637979e-12 week: 146 ******** Week 146 almanac for PRN-17 ******** ID: 17 Health: 0 Eccentricity: 0.01367521286 Time of Applicability(s): 319488 Orbital Inclination(rad): 0.9802161203 Rate of Right Ascen(r/s): -7.977475151e-09 SQRT(A) (m 1/2): 5153.700684 Right Ascen at Week(rad): -2.534094692 Argument of Perigee(rad): -1.503926599 Mean Anom(rad): -1.309731972 Af0(s): 0.0004476825439 Af1(s/s): 3.637979e-12 week: 146 ******** Week 146 almanac for PRN-18 ******** ID: 18 Health: 0 Eccentricity: 0.002093315124 Time of Applicability(s): 319488 Orbital Inclination(rad): 0.9702991742 Rate of Right Ascen(r/s): -7.897471818e-09 SQRT(A) (m 1/2): 5153.581055 Right Ascen at Week(rad): -1.527976317 Argument of Perigee(rad): 3.109182442 Mean Anom(rad): 2.973799649 Af0(s): 0.0001997236938 Af1(s/s): -7.275958e-12 week: 146 ******** Week 146 almanac for PRN-19 ******** ID: 19 Health: 0 Eccentricity: 0.008948802948 Time of Applicability(s): 319488 Orbital Inclination(rad): 0.9789278161 Rate of Right Ascen(r/s): -8.011762293e-09 SQRT(A) (m 1/2): 5153.633789 Right Ascen at Week(rad): -2.489198041 Argument of Perigee(rad): 1.999349963 Mean Anom(rad): 1.095148058 Af0(s): 8.74262207e-05 Af1(s/s): 3.637979e-12 week: 146 ******** Week 146 almanac for PRN-20 ******** ID: 20 Health: 0 Eccentricity: 0.005257606506 Time of Applicability(s): 319488 Orbital Inclination(rad): 0.9416508846 Rate of Right Ascen(r/s): -8.034620388e-09 SQRT(A) (m 1/2): 5153.680176 Right Ascen at Week(rad): -0.6543731347 Argument of Perigee(rad): 3.115911584 Mean Anom(rad): -2.458931881 Af0(s): 0.0004084914795 Af1(s/s): 0 week: 146 ******** Week 146 almanac for PRN-21 ******** ID: 21 Health: 0 Eccentricity: 0.02454805374 Time of Applicability(s): 319488 Orbital Inclination(rad): 0.9590879318 Rate of Right Ascen(r/s): -7.966046103e-09 SQRT(A) (m 1/2): 5153.543457 Right Ascen at Week(rad): -1.626489642 Argument of Perigee(rad): -1.018436286 Mean Anom(rad): -1.140402364 Af0(s): 0.0001243562622 Af1(s/s): 0 week: 146 ******** Week 146 almanac for PRN-22 ******** ID: 22 Health: 255 Eccentricity: 0.01278114319 Time of Applicability(s): 319488 Orbital Inclination(rad): 0.9613289819 Rate of Right Ascen(r/s): -7.897471818e-09 SQRT(A) (m 1/2): 5153.59082 Right Ascen at Week(rad): 0.6285407634 Argument of Perigee(rad): -1.875988846 Mean Anom(rad): -1.450990406 Af0(s): 0 Af1(s/s): 0 week: 146 ******** Week 146 almanac for PRN-23 ******** ID: 23 Health: 0 Eccentricity: 0.001974582672 Time of Applicability(s): 319488 Orbital Inclination(rad): 0.967410976 Rate of Right Ascen(r/s): -7.760323248e-09 SQRT(A) (m 1/2): 5153.651367 Right Ascen at Week(rad): -0.5281466643 Argument of Perigee(rad): 2.938925929 Mean Anom(rad): 2.096032323 Af0(s): 6.029394531e-06 Af1(s/s): -3.637979e-12 week: 146 ******** Week 146 almanac for PRN-24 ******** ID: 24 Health: 0 Eccentricity: 0.01231193542 Time of Applicability(s): 319488 Orbital Inclination(rad): 0.9340888386 Rate of Right Ascen(r/s): -8.057478483e-09 SQRT(A) (m 1/2): 5153.638184 Right Ascen at Week(rad): 1.517077039 Argument of Perigee(rad): 0.8034127008 Mean Anom(rad): 3.084151516 Af0(s): 0.0002185655518 Af1(s/s): 0 week: 146 ******** Week 146 almanac for PRN-25 ******** ID: 25 Health: 0 Eccentricity: 0.01042604446 Time of Applicability(s): 319488 Orbital Inclination(rad): 0.9581172096 Rate of Right Ascen(r/s): -7.931758961e-09 SQRT(A) (m 1/2): 5153.672363 Right Ascen at Week(rad): 2.635699947 Argument of Perigee(rad): 0.973346014 Mean Anom(rad): 1.219162316 Af0(s): 0.0002185655518 Af1(s/s): 7.275958e-12 week: 146 ******** Week 146 almanac for PRN-26 ******** ID: 26 Health: 0 Eccentricity: 0.00683259964 Time of Applicability(s): 319488 Orbital Inclination(rad): 0.9389364576 Rate of Right Ascen(r/s): -8.114623721e-09 SQRT(A) (m 1/2): 5153.638672 Right Ascen at Week(rad): 2.589091424 Argument of Perigee(rad): 0.3552835827 Mean Anom(rad): 0.5694296976 Af0(s): 0.0001401834229 Af1(s/s): 3.637979e-12 week: 146 ******** Week 146 almanac for PRN-27 ******** ID: 27 Health: 0 Eccentricity: 0.01010847092 Time of Applicability(s): 319488 Orbital Inclination(rad): 0.9738405127 Rate of Right Ascen(r/s): -8.068907531e-09 SQRT(A) (m 1/2): 5153.601562 Right Ascen at Week(rad): -2.596414534 Argument of Perigee(rad): 0.6326236391 Mean Anom(rad): -1.276098994 Af0(s): 7.084538574e-05 Af1(s/s): 1.818989e-11 week: 146 ******** Week 146 almanac for PRN-29 ******** ID: 29 Health: 0 Eccentricity: 0.00178861618 Time of Applicability(s): 319488 Orbital Inclination(rad): 0.9822055016 Rate of Right Ascen(r/s): -7.977475151e-09 SQRT(A) (m 1/2): 5153.713867 Right Ascen at Week(rad): -2.521127012 Argument of Perigee(rad): 2.271715443 Mean Anom(rad): -1.156413289 Af0(s): -0.0003730687866 Af1(s/s): -3.637979e-12 week: 146 ******** Week 146 almanac for PRN-30 ******** ID: 30 Health: 0 Eccentricity: 0.005440711975 Time of Applicability(s): 319488 Orbital Inclination(rad): 0.9357726222 Rate of Right Ascen(r/s): -8.034620388e-09 SQRT(A) (m 1/2): 5153.529297 Right Ascen at Week(rad): 1.612964695 Argument of Perigee(rad): -2.74970101 Mean Anom(rad): 2.139834291 Af0(s): -0.000402462085 Af1(s/s): -3.637979e-12 week: 146 ******** Week 146 almanac for PRN-31 ******** ID: 31 Health: 0 Eccentricity: 0.01047039032 Time of Applicability(s): 319488 Orbital Inclination(rad): 0.9548395241 Rate of Right Ascen(r/s): -7.817468486e-09 SQRT(A) (m 1/2): 5153.625977 Right Ascen at Week(rad): 1.617540422 Argument of Perigee(rad): 0.3700676221 Mean Anom(rad): 1.665711389 Af0(s): -0.0001281246338 Af1(s/s): -3.637979e-12 week: 146 ******** Week 146 almanac for PRN-32 ******** ID: 32 Health: 0 Eccentricity: 0.00547170639 Time of Applicability(s): 319488 Orbital Inclination(rad): 0.9580752648 Rate of Right Ascen(r/s): -7.943188008e-09 SQRT(A) (m 1/2): 5153.707031 Right Ascen at Week(rad): 0.5385654499 Argument of Perigee(rad): -2.368527382 Mean Anom(rad): -0.6059785875 Af0(s): -4.522045898e-05 Af1(s/s): -7.275958e-12 week: 146